Weather History for K40J - October, 2013

Change the Weather History Date:

Friday, October 25, 2013

  Actual Average (KCTY) Record (KCTY)
Temperature  
Mean Temperature 60 °F 68 °F  
Max Temperature 75 °F 81 °F - ()
Min Temperature 46 °F 55 °F - ()
Degree Days  
Heating Degree Days 4 2  
Month to date heating degree days 19  
Since 1 July heating degree days 19  
Cooling Degree Days 0 5  
Month to date cooling degree days 177  
Year to date cooling degree days 2519  
Growing Degree Days 10 (Base 50)    
Moisture  
Dew Point 44 °F    
Average Humidity 64    
Maximum Humidity 100    
Minimum Humidity 33    
Precipitation  
Precipitation 0.02 in 0.08 in - ()
Month to date precipitation 2.87  
Year to date precipitation 42.70  
Sea Level Pressure  
Sea Level Pressure 30.25 in    
Wind  
Wind Speed 3 mph (North)    
Max Wind Speed 13 mph    
Max Gust Speed 17 mph    
Visibility 9 miles    
Events      
T = Trace of Precipitation, MM = Missing Value Source: NWS Daily Summary

Daily Weather History Graph

Daily Weather History Graph

Search for Another Location

Airport or City:

Trip Planner

Search our weather history database for the weather conditions in past years. The results will help you decide how hot, cold, wet, or windy it might be!

Date:

Astronomy

Oct. 25, 2013 Rise Set
Actual Time 7:43 AM EDT 6:52 PM EDT
Civil Twilight 7:18 AM EDT 7:17 PM EDT
Nautical Twilight 6:50 AM EDT 7:45 PM EDT
Astronomical Twilight 6:22 AM EDT 8:13 PM EDT
Moon No Moon Rise 1:16 PM EDT (10/25)
Length of Visible Light 11h 58m
Length of Day
11h 09m
Waning Gibbous, 62% of the Moon is Illuminated
Oct 25
Waning Gibbous
Oct 26
Last Quarter
Nov 3
New
Nov 10
First Quarter
Nov 17
Full

Hourly Weather History & Observations

Time (EDT) Temp. Dew Point Humidity Pressure Visibility Wind Dir Wind Speed Gust Speed Precip Events Conditions
12:15 AM 51.8 °F 50.0 °F 94% 30.21 in 7.0 mi Calm Calm - N/A   Clear
12:35 AM 51.8 °F 50.0 °F 94% 30.21 in 10.0 mi Calm Calm - N/A   Clear
12:53 AM 53.1 °F 48.9 °F 86% 30.19 in - Calm Calm - N/A   Unknown
12:55 AM 51.8 °F 50.0 °F 94% 30.21 in 10.0 mi Calm Calm - N/A   Clear
1:15 AM 51.8 °F 50.0 °F 94% 30.20 in 5.0 mi Calm Calm - N/A   Clear
1:35 AM 50.0 °F 50.0 °F 100% 30.20 in 4.0 mi Calm Calm - N/A   Clear
1:53 AM 51.1 °F 48.0 °F 89% 30.19 in - Calm Calm - N/A   Unknown
1:55 AM 50.0 °F 50.0 °F 100% 30.21 in 7.0 mi Calm Calm - N/A   Clear
2:15 AM 50.0 °F 50.0 °F 100% 30.21 in 2.5 mi Calm Calm - N/A   Clear
2:35 AM 50.0 °F 48.2 °F 94% 30.20 in 4.0 mi Calm Calm - N/A   Clear
2:53 AM 50.0 °F 46.9 °F 89% 30.19 in - Calm Calm - N/A   Unknown
2:55 AM 50.0 °F 46.4 °F 87% 30.20 in 4.0 mi Calm Calm - N/A   Clear
3:15 AM 50.0 °F 48.2 °F 94% 30.20 in 10.0 mi Calm Calm - N/A   Clear
3:35 AM 48.2 °F 46.4 °F 93% 30.20 in 10.0 mi Calm Calm - N/A   Clear
3:53 AM 50.0 °F 46.0 °F 86% 30.19 in - Calm Calm - N/A   Unknown
3:55 AM 48.2 °F 46.4 °F 93% 30.20 in 10.0 mi Calm Calm - N/A   Clear
4:15 AM 50.0 °F 46.4 °F 87% 30.20 in 7.0 mi Calm Calm - N/A   Clear
4:35 AM 48.2 °F 46.4 °F 93% 30.20 in 4.0 mi Calm Calm - N/A   Clear
4:53 AM 48.9 °F 46.0 °F 90% 30.19 in - Calm Calm - N/A   Unknown
4:55 AM 48.2 °F 46.4 °F 93% 30.21 in 7.0 mi Calm Calm - N/A   Clear
5:15 AM 46.4 °F 46.4 °F 100% 30.22 in 2.5 mi Calm Calm - N/A   Clear
5:35 AM 46.4 °F 46.4 °F 100% 30.22 in 1.0 mi Calm Calm - N/A   Mist
5:53 AM 48.0 °F 45.0 °F 89% 30.22 in - Calm Calm - N/A   Unknown
5:55 AM 46.4 °F 46.4 °F 100% 30.23 in 0.8 mi Calm Calm - N/A   Mist
6:15 AM 46.4 °F 46.4 °F 100% 30.23 in 7.0 mi Calm Calm - N/A   Clear
6:35 AM 46.4 °F 46.4 °F 100% 30.23 in 10.0 mi Calm Calm - N/A   Clear
6:53 AM 48.9 °F 44.1 °F 83% 30.22 in - Calm Calm - N/A   Unknown
6:55 AM 46.4 °F 46.4 °F 100% 30.24 in 10.0 mi Calm Calm - N/A   Clear
7:15 AM 46.4 °F 44.6 °F 93% 30.24 in 10.0 mi Calm Calm - N/A   Clear
7:35 AM 46.4 °F 46.4 °F 100% 30.25 in 10.0 mi Calm Calm - N/A   Clear
7:53 AM 48.9 °F 45.0 °F 86% 30.24 in - NNW 3.5 mph - N/A   Unknown
7:55 AM 48.2 °F 46.4 °F 93% 30.25 in 10.0 mi Calm Calm - N/A   Clear
8:15 AM 50.0 °F 48.2 °F 94% 30.26 in 10.0 mi North 4.6 mph - N/A   Clear
8:35 AM 51.8 °F 50.0 °F 94% 30.26 in 10.0 mi North 5.8 mph - N/A   Clear
8:53 AM 57.0 °F 48.9 °F 74% 30.27 in - North 8.1 mph - 0.01 in   Unknown
8:55 AM 53.6 °F 50.0 °F 88% 30.28 in 10.0 mi North 5.8 mph - N/A   Clear
9:15 AM 55.4 °F 50.0 °F 82% 30.28 in 10.0 mi NNE 6.9 mph - N/A   Clear
9:35 AM 57.2 °F 48.2 °F 72% 30.30 in 10.0 mi NNE 9.2 mph - N/A   Clear
9:53 AM 61.0 °F 46.9 °F 60% 30.29 in - NNE 9.2 mph - N/A   Unknown
9:55 AM 59.0 °F 46.4 °F 63% 30.30 in 10.0 mi NE 8.1 mph - N/A   Clear
10:15 AM 60.8 °F 46.4 °F 59% 30.31 in 10.0 mi NNE 9.2 mph - N/A   Clear
10:35 AM 62.6 °F 46.4 °F 55% 30.31 in 10.0 mi NNE 6.9 mph - N/A   Clear
10:53 AM 64.9 °F 46.9 °F 52% 30.30 in - NNE 6.9 mph - N/A   Unknown
10:55 AM 62.6 °F 46.4 °F 55% 30.31 in 10.0 mi NNE 5.8 mph - N/A   Clear
11:15 AM 64.4 °F 46.4 °F 52% 30.31 in 10.0 mi NNE 8.1 mph - N/A   Clear
11:35 AM 64.4 °F 46.4 °F 52% 30.31 in 10.0 mi NNE 8.1 mph - N/A   Clear
11:53 AM 69.1 °F 46.9 °F 45% 30.29 in - NE 9.2 mph - 0.01 in   Unknown
11:55 AM 66.2 °F 46.4 °F 49% 30.30 in 10.0 mi NNE 10.4 mph - N/A   Clear
12:15 PM 68.0 °F 46.4 °F 46% 30.30 in 10.0 mi North 6.9 mph - N/A   Clear
12:35 PM 68.0 °F 46.4 °F 46% 30.29 in 10.0 mi North 8.1 mph - N/A   Clear
12:53 PM 71.1 °F 48.0 °F 44% 30.27 in - North 10.4 mph - N/A   Unknown
12:55 PM 68.0 °F 46.4 °F 46% 30.29 in 10.0 mi North 11.5 mph - N/A   Clear
1:15 PM 69.8 °F 48.2 °F 46% 30.28 in 10.0 mi North 8.1 mph - N/A   Clear
1:35 PM 69.8 °F 48.2 °F 46% 30.27 in 10.0 mi NNW 11.5 mph - N/A   Clear
1:53 PM 73.0 °F 48.0 °F 41% 30.25 in - North 11.5 mph - N/A   Unknown
1:55 PM 69.8 °F 46.4 °F 43% 30.26 in 10.0 mi North 11.5 mph - N/A   Clear
2:15 PM 71.6 °F 46.4 °F 41% 30.25 in 10.0 mi NNW 12.7 mph 17.3 mph N/A   Clear
2:35 PM 71.6 °F 46.4 °F 41% 30.23 in 10.0 mi NNW 10.4 mph - N/A   Clear
2:53 PM 73.9 °F 46.9 °F 38% 30.22 in - North 11.5 mph - N/A   Unknown
2:55 PM 71.6 °F 44.6 °F 38% 30.23 in 10.0 mi North 11.5 mph 16.1 mph N/A   Clear
3:35 PM 71.6 °F 44.6 °F 38% 30.23 in 10.0 mi North 10.4 mph 16.1 mph N/A   Clear
3:53 PM 75.0 °F 46.0 °F 36% 30.21 in - NNW 9.2 mph 16.1 mph N/A   Unknown
3:55 PM 71.6 °F 42.8 °F 35% 30.23 in 10.0 mi NNW 8.1 mph - N/A   Clear
4:15 PM 71.6 °F 42.8 °F 35% 30.22 in 10.0 mi NW 8.1 mph - N/A   Clear
4:35 PM 71.6 °F 44.6 °F 38% 30.22 in 10.0 mi North 9.2 mph - N/A   Clear
4:53 PM 73.9 °F 45.0 °F 35% 30.21 in - NNW 9.2 mph - N/A   Unknown
4:55 PM 71.6 °F 42.8 °F 35% 30.23 in 10.0 mi NNW 11.5 mph 16.1 mph N/A   Clear
5:15 PM 71.6 °F 41.0 °F 33% 30.23 in 10.0 mi North 6.9 mph - N/A   Clear
5:35 PM 69.8 °F 42.8 °F 38% 30.22 in 10.0 mi North 9.2 mph - N/A   Clear
5:53 PM 71.1 °F 42.1 °F 35% 30.21 in - North 12.7 mph - N/A   Unknown
5:55 PM 69.8 °F 41.0 °F 35% 30.22 in 10.0 mi North 11.5 mph - N/A   Clear
6:15 PM 68.0 °F 41.0 °F 37% 30.22 in 10.0 mi North 8.1 mph - N/A   Clear
6:35 PM 66.2 °F 42.8 °F 43% 30.23 in 10.0 mi North 5.8 mph - N/A   Clear
6:53 PM 64.9 °F 44.1 °F 47% 30.22 in - North 3.5 mph - N/A   Unknown
6:55 PM 64.4 °F 44.6 °F 49% 30.23 in 10.0 mi North 3.5 mph - N/A   Clear
7:15 PM 62.6 °F 42.8 °F 48% 30.24 in 10.0 mi North 5.8 mph - N/A   Clear
7:35 PM 60.8 °F 42.8 °F 52% 30.25 in 10.0 mi North 5.8 mph - N/A   Clear
7:53 PM 62.1 °F 41.0 °F 46% 30.24 in - North 4.6 mph - N/A   Unknown
7:55 PM 60.8 °F 41.0 °F 48% 30.25 in 10.0 mi North 3.5 mph - N/A   Clear
8:15 PM 59.0 °F 41.0 °F 51% 30.26 in 10.0 mi North 4.6 mph - N/A   Clear
8:35 PM 59.0 °F 37.4 °F 45% 30.27 in 10.0 mi North 4.6 mph - N/A   Clear
8:53 PM 57.9 °F 37.0 °F 46% 30.26 in - North 4.6 mph - N/A   Unknown
8:55 PM 57.2 °F 35.6 °F 44% 30.28 in 10.0 mi North 3.5 mph - N/A   Clear
9:15 PM 57.2 °F 35.6 °F 44% 30.28 in 10.0 mi North 4.6 mph - N/A   Clear
9:35 PM 55.4 °F 33.8 °F 44% 30.28 in 10.0 mi North 5.8 mph - N/A   Clear
9:53 PM 55.9 °F 35.1 °F 45% 30.28 in - North 4.6 mph - N/A   Unknown
9:55 PM 55.4 °F 33.8 °F 44% 30.29 in 10.0 mi North 4.6 mph - N/A   Clear
10:15 PM 53.6 °F 35.6 °F 51% 30.29 in 10.0 mi NNE 4.6 mph - N/A   Clear
10:35 PM 53.6 °F 35.6 °F 51% 30.30 in 10.0 mi NNE 4.6 mph - N/A   Clear
10:53 PM 53.1 °F 35.1 °F 50% 30.29 in - NNE 5.8 mph - N/A   Unknown
10:55 PM 51.8 °F 35.6 °F 54% 30.30 in 10.0 mi NNE 5.8 mph - N/A   Clear
11:15 PM 51.8 °F 35.6 °F 54% 30.31 in 10.0 mi NNE 4.6 mph - N/A   Clear
11:35 PM 51.8 °F 35.6 °F 54% 30.30 in 10.0 mi NNE 5.8 mph - N/A   Clear
11:53 PM 52.0 °F 35.1 °F 53% 30.30 in - NE 4.6 mph - N/A   Unknown
11:55 PM 51.8 °F 35.6 °F 54% 30.31 in 10.0 mi NNE 4.6 mph - N/A   Clear